Buffalo, MN

2:14 AM CDT on April 25, 2017 (GMT -0500)
Buffalo

Weather History for KCFE - September, 2013

Change the Weather History Date:

Wednesday, September 18, 2013

  Actual Average (KMIC) Record (KMIC)
Temperature  
Mean Temperature 67 °F -  
Max Temperature 76 °F 69 °F 88 °F (1998)
Min Temperature 58 °F 48 °F 37 °F (1991)
Cooling Degree Days 2    
Growing Degree Days 17 (Base 50)    
Moisture  
Dew Point 63 °F    
Average Humidity 87    
Maximum Humidity 94    
Minimum Humidity 72    
Precipitation  
Precipitation 0.07 in - - ()
Sea Level Pressure  
Sea Level Pressure 29.79 in    
Wind  
Wind Speed 6 mph (SE)    
Max Wind Speed 12 mph    
Max Gust Speed 20 mph    
Visibility 5 miles    
Events Rain    
Averages and records for this station are not official NWS values.
T = Trace of Precipitation, MM = Missing Value Source: NWS Daily Summary

Daily Weather History Graph

Daily Weather History Graph

Search for Another Location

Airport or City:

Trip Planner

Search our weather history database for the weather conditions in past years. The results will help you decide how hot, cold, wet, or windy it might be!

Date:

Astronomy

Sep. 18, 2013 Rise Set
Actual Time 6:57 AM CDT 7:20 PM CDT
Civil Twilight 6:28 AM CDT 7:49 PM CDT
Nautical Twilight 5:53 AM CDT 8:24 PM CDT
Astronomical Twilight 5:17 AM CDT 8:59 PM CDT
Moon 6:42 PM CDT (9/18) 6:00 AM CDT (9/18)
Length of Visible Light 13h 21m
Length of Day
12h 22m
Waxing Gibbous, 99% of the Moon is Illuminated
Sep 18
Waxing Gibbous
Sep 19
Full
Sep 26
Last Quarter
Oct 4
New
Oct 11
First Quarter

Hourly Weather History & Observations

Time (CDT) Temp. Dew Point Humidity Pressure Visibility Wind Dir Wind Speed Gust Speed Precip Events Conditions
12:16 AM 58.6 °F 56.3 °F 92% 29.94 in 5.0 mi SE 6.9 mph - N/A   Light Drizzle
12:36 AM 58.6 °F 56.5 °F 93% 29.94 in 4.0 mi SE 6.9 mph - N/A   Overcast
12:56 AM 58.8 °F 56.7 °F 93% 29.93 in 4.0 mi SE 4.6 mph - N/A   Overcast
1:16 AM 59.0 °F 56.7 °F 92% 29.92 in 3.0 mi SE 6.9 mph - N/A   Overcast
1:36 AM 59.0 °F 56.8 °F 93% 29.91 in 3.0 mi SE 4.6 mph - N/A   Overcast
1:56 AM 59.2 °F 57.2 °F 93% 29.91 in 3.0 mi Calm Calm - N/A   Overcast
2:16 AM 59.4 °F 57.2 °F 93% 29.90 in 3.0 mi SE 4.6 mph - N/A Rain Light Rain
2:36 AM 59.4 °F 57.2 °F 93% 29.89 in 4.0 mi SE 5.8 mph - N/A   Overcast
2:56 AM 59.9 °F 57.7 °F 93% 29.88 in 4.0 mi SE 4.6 mph - N/A   Overcast
3:16 AM 60.3 °F 58.1 °F 93% 29.88 in 4.0 mi SE 5.8 mph - N/A   Overcast
3:36 AM 60.3 °F 58.1 °F 93% 29.87 in 3.0 mi SE 5.8 mph - N/A   Overcast
3:56 AM 60.3 °F 58.1 °F 93% 29.87 in 2.0 mi SE 4.6 mph - N/A   Overcast
4:16 AM 60.3 °F 58.3 °F 93% 29.86 in 1.5 mi SE 5.8 mph - N/A   Overcast
4:36 AM 60.3 °F 58.5 °F 94% 29.85 in 1.2 mi ESE 6.9 mph - N/A   Overcast
4:56 AM 60.4 °F 58.6 °F 94% 29.84 in 1.5 mi ESE 4.6 mph - N/A   Overcast
5:16 AM 60.8 °F 59.0 °F 94% 29.84 in 2.0 mi Calm Calm - 0.05 in Rain Light Rain
5:36 AM 61.0 °F 59.2 °F 94% 29.84 in 2.0 mi SE 3.5 mph - 0.05 in   Overcast
5:56 AM 62.1 °F 60.3 °F 94% 29.83 in 1.5 mi SE 5.8 mph - 0.05 in Rain Light Rain
6:16 AM 62.1 °F 60.3 °F 94% 29.83 in 1.5 mi SE 4.6 mph - N/A   Light Drizzle
6:36 AM 62.1 °F 60.3 °F 94% 29.82 in 1.8 mi SE 3.5 mph - N/A Rain Light Rain
6:56 AM 62.1 °F 60.3 °F 94% 29.82 in 1.8 mi SE 5.8 mph - N/A   Overcast
7:16 AM 62.6 °F 60.8 °F 94% 29.82 in 1.8 mi SE 5.8 mph - N/A   Overcast
7:36 AM 62.8 °F 61.0 °F 94% 29.83 in 2.0 mi SE 5.8 mph - N/A   Overcast
7:56 AM 63.5 °F 61.7 °F 94% 29.83 in 1.2 mi SE 5.8 mph - 0.01 in Rain Light Rain
8:16 AM 63.7 °F 61.9 °F 94% 29.83 in 1.5 mi SE 6.9 mph - N/A Rain Light Rain
8:36 AM 64.4 °F 62.6 °F 94% 29.83 in 1.5 mi SSE 5.8 mph - N/A Rain Light Rain
8:56 AM 64.6 °F 62.8 °F 94% 29.82 in 1.5 mi SE 5.8 mph - N/A   Light Drizzle
9:16 AM 65.5 °F 63.5 °F 93% 29.83 in 1.8 mi SSE 5.8 mph - 0.01 in   Overcast
9:36 AM 65.5 °F 63.5 °F 93% 29.83 in 2.0 mi SSE 4.6 mph - 0.01 in   Overcast
9:56 AM 65.5 °F 63.5 °F 93% 29.83 in 2.5 mi SSE 5.8 mph - 0.01 in   Overcast
10:16 AM 65.7 °F 63.5 °F 93% 29.82 in 3.0 mi SSE 6.9 mph - N/A   Overcast
10:36 AM 66.6 °F 64.0 °F 92% 29.82 in 4.0 mi South 8.1 mph - N/A   Overcast
10:56 AM 67.3 °F 64.4 °F 90% 29.81 in 5.0 mi SSE 6.9 mph - N/A   Overcast
11:16 AM 67.8 °F 64.2 °F 88% 29.80 in 5.0 mi SSE 6.9 mph - N/A   Overcast
11:36 AM 69.1 °F 64.6 °F 86% 29.79 in 7.0 mi SSE 8.1 mph - N/A   Overcast
11:56 AM 69.8 °F 64.8 °F 84% 29.79 in 7.0 mi SSE 9.2 mph - N/A   Overcast
12:16 PM 70.7 °F 65.1 °F 82% 29.79 in 7.0 mi South 6.9 mph - N/A   Overcast
12:36 PM 71.1 °F 65.3 °F 82% 29.78 in 7.0 mi SSE 9.2 mph - N/A   Overcast
12:55 PM 70.7 °F 64.8 °F 81% 29.78 in 7.0 mi SSE 9.2 mph - N/A   Overcast
1:16 PM 70.9 °F 65.1 °F 82% 29.77 in 7.0 mi SSE 5.8 mph - N/A   Overcast
1:36 PM 71.8 °F 65.3 °F 80% 29.76 in 7.0 mi SSE 6.9 mph - N/A   Overcast
1:55 PM 72.5 °F 65.7 °F 79% 29.76 in 7.0 mi SSE 10.4 mph 16.1 mph N/A   Overcast
2:16 PM 72.7 °F 65.3 °F 78% 29.74 in 10.0 mi SSE 8.1 mph - N/A   Overcast
2:36 PM 72.5 °F 65.3 °F 78% 29.75 in 10.0 mi SE 10.4 mph - N/A   Overcast
2:55 PM 72.5 °F 64.9 °F 77% 29.75 in 10.0 mi SSE 10.4 mph - N/A   Overcast
3:16 PM 72.5 °F 65.3 °F 78% 29.74 in 7.0 mi SSE 9.2 mph 19.6 mph N/A   Overcast
3:36 PM 72.5 °F 65.3 °F 78% 29.73 in 10.0 mi SSE 8.1 mph - N/A   Overcast
3:56 PM 73.2 °F 65.7 °F 77% 29.73 in 7.0 mi SE 10.4 mph - N/A   Overcast
4:16 PM 73.6 °F 65.5 °F 76% 29.73 in 7.0 mi SSE 10.4 mph - N/A   Overcast
4:36 PM 74.3 °F 65.7 °F 74% 29.73 in 7.0 mi SSE 11.5 mph 19.6 mph N/A   Overcast
4:56 PM 76.1 °F 66.7 °F 73% 29.72 in 10.0 mi SSE 4.6 mph - N/A   Overcast
5:16 PM 76.1 °F 66.4 °F 72% 29.72 in 10.0 mi SSE 8.1 mph - N/A   Mostly Cloudy
5:36 PM 76.1 °F 67.1 °F 74% 29.72 in 10.0 mi SE 3.5 mph - N/A   Scattered Clouds
5:56 PM 76.1 °F 67.1 °F 74% 29.71 in 10.0 mi ESE 8.1 mph - N/A   Clear
6:16 PM 75.9 °F 67.8 °F 76% 29.71 in 10.0 mi ESE 5.8 mph - N/A   Clear
6:35 PM 74.3 °F 67.1 °F 78% 29.71 in 10.0 mi ESE 5.8 mph - N/A   Clear
6:56 PM 73.4 °F 67.1 °F 81% 29.70 in 7.0 mi East 5.8 mph - N/A   Clear
7:16 PM 72.5 °F 66.9 °F 83% 29.70 in 7.0 mi East 5.8 mph - N/A   Clear
7:36 PM 71.1 °F 66.4 °F 85% 29.70 in 7.0 mi East 8.1 mph - N/A   Clear
7:56 PM 70.7 °F 66.2 °F 86% 29.70 in 7.0 mi East 8.1 mph - N/A   Clear
8:16 PM 70.0 °F 66.0 °F 87% 29.70 in 5.0 mi ESE 8.1 mph - N/A   Clear
8:36 PM 69.8 °F 65.8 °F 87% 29.71 in 5.0 mi ESE 6.9 mph - N/A   Clear
8:56 PM 69.8 °F 66.2 °F 88% 29.71 in 5.0 mi ESE 9.2 mph - N/A   Clear
9:16 PM 70.0 °F 66.4 °F 88% 29.71 in 5.0 mi ESE 8.1 mph - N/A   Clear
9:36 PM 70.2 °F 66.6 °F 88% 29.71 in 5.0 mi ESE 9.2 mph - N/A   Clear
9:56 PM 70.2 °F 66.6 °F 88% 29.71 in 5.0 mi SE 8.1 mph - N/A   Clear
10:16 PM 70.2 °F 66.6 °F 88% 29.71 in 5.0 mi SE 9.2 mph - N/A   Clear
10:36 PM 70.3 °F 66.7 °F 88% 29.69 in 5.0 mi ESE 8.1 mph - N/A   Clear
10:56 PM 70.3 °F 66.7 °F 88% 29.70 in 5.0 mi SE 4.6 mph - N/A   Clear
11:16 PM 70.3 °F 66.7 °F 88% 29.70 in 5.0 mi Calm Calm - N/A   Clear
11:36 PM 70.3 °F 66.9 °F 89% 29.70 in 5.0 mi SE 3.5 mph - N/A   Clear
11:56 PM 70.0 °F 66.6 °F 89% 29.70 in 5.0 mi Calm Calm - N/A   Clear